K3GM Weather Reports


Display with metric or nautical units.
time (UTC)temp
F
wind
direction
speed
MPH
gust
MPH
rain 1hr
in
rain 24hr
in
rain mn
in
humidity
%
barometer
mb
20260508114537 51 0 0.0 2.0 0.00 0.00 0.00 71 1014.5
20260508113048 50 0 0.0 6.0 0.00 0.00 0.00 74 1014.6
20260508111534 48 0 1.0 7.0 0.00 0.00 0.00 71 1014.4
20260508110032 47 0 0.0 0.0 0.00 0.00 0.00 82 1014.4
20260508104536 46 0 0.0 0.0 0.00 0.00 0.00 83 1014.2
20260508103038 45 0 0.0 0.0 0.00 0.00 0.00 83 1014.2
20260508101534 46 0 0.0 0.0 0.00 0.00 0.00 81 1014.1
20260508100036 46 0 0.0 0.0 0.00 0.00 0.00 79 1013.7
20260508094534 47 0 0.0 1.0 0.00 0.02 0.00 77 1013.7
20260508093041 48 0 0.0 1.0 0.00 0.02 0.00 75 1013.6
20260508091549 48 0 0.0 0.0 0.00 0.02 0.00 74 1013.6
20260508090038 49 0 0.0 3.0 0.00 0.02 0.00 72 1013.3
20260508084535 49 321 0.0 7.0 0.00 0.02 0.00 71 1013.2
20260508083040 50 303 1.0 10.0 0.00 0.02 0.00 70 1013.0
20260508081532 51 300 2.0 11.0 0.00 0.02 0.00 69 1012.7
20260508080038 51 0 4.0 13.0 0.00 0.02 0.00 67 1012.5
20260508074546 52 312 4.0 12.0 0.00 0.02 0.00 66 1012.1
20260508073034 52 319 1.0 8.0 0.00 0.02 0.00 58 1011.7
20260508071536 53 317 5.0 12.0 0.00 0.02 0.00 63 1011.3
20260508070035 54 309 0.0 9.0 0.00 0.02 0.00 64 1010.9
20260508064536 54 302 2.0 8.0 0.00 0.08 0.00 60 1010.8
20260508063034 54 0 0.0 4.0 0.00 0.08 0.00 71 1010.4
20260508061533 54 0 0.0 3.0 0.00 0.08 0.00 73 1010.3
20260508060037 54 0 0.0 1.0 0.00 0.08 0.00 75 1010.2
20260508054535 55 0 0.0 1.0 0.00 0.34 0.00 74 1010.3
20260508053037 55 0 0.0 3.0 0.00 0.34 0.00 74 1010.2
20260508051535 55 0 0.0 0.0 0.00 0.34 0.00 75 1009.8
20260508050035 55 0 0.0 0.0 0.00 0.34 0.00 74 1010.1
20260508044537 55 0 0.0 0.0 0.00 0.36 0.00 73 1009.8
20260508043040 54 0 0.0 0.0 0.00 0.36 0.00 74 1010.1
20260508041536 54 0 0.0 0.0 0.00 0.36 0.00 75 1010.1
20260508040035 54 0 0.0 0.0 0.00 0.36 0.00 76 1009.9
20260508034536 54 0 0.0 1.0 0.00 0.39 0.36 75 1009.9
20260508033038 54 0 0.0 2.0 0.00 0.39 0.36 76 1009.7
20260508031533 54 0 0.0 3.0 0.00 0.39 0.36 75 1009.8
20260508030035 54 0 0.0 2.0 0.00 0.39 0.36 75 1009.8
20260508024539 54 0 0.0 1.0 0.00 0.41 0.36 76 1009.8
20260508023036 54 0 0.0 2.0 0.00 0.41 0.36 75 1009.7
20260508021545 55 0 0.0 2.0 0.00 0.41 0.36 72 1009.8
20260508020033 55 0 0.0 1.0 0.00 0.41 0.36 67 1009.7
20260508014533 55 0 0.0 3.0 0.00 0.41 0.36 47 1009.5
20260508013041 55 0 0.0 0.0 0.00 0.41 0.36 50 1009.4
20260508011538 56 0 0.0 0.0 0.00 0.41 0.36 44 1009.2
20260508010035 57 0 0.0 0.0 0.00 0.41 0.36 41 1009.3
20260508004539 58 0 0.0 0.0 0.00 0.41 0.36 46 1009.2
20260508003037 59 0 0.0 0.0 0.00 0.41 0.36 37 1009.0
20260508001540 60 0 0.0 0.0 0.00 0.41 0.36 40 1008.9
20260508000037 62 0 0.0 3.0 0.00 0.41 0.36 32 1008.7
20260507234536 62 0 1.0 8.0 0.00 0.41 0.36 29 1008.5
20260507233038 62 318 2.0 8.0 0.00 0.41 0.36 29 1008.6
20260507231535 63 315 1.0 9.0 0.00 0.41 0.36 29 1008.3
20260507230034 63 309 1.0 5.0 0.00 0.41 0.36 35 1008.3
20260507224536 63 0 0.0 5.0 0.00 0.41 0.36 37 1008.2
20260507223037 63 0 0.0 4.0 0.00 0.41 0.36 37 1008.2
20260507221536 64 0 0.0 8.0 0.00 0.41 0.36 30 1008.3
20260507220036 64 0 2.0 9.0 0.00 0.41 0.36 30 1008.3
20260507214545 64 301 0.0 4.0 0.00 0.41 0.36 36 1008.4
20260507213035 64 0 0.0 4.0 0.00 0.41 0.36 33 1008.4
20260507211537 64 0 2.0 8.0 0.00 0.41 0.36 27 1008.5
20260507210048 64 0 0.0 8.0 0.00 0.41 0.36 30 1008.2
20260507204534 64 281 1.0 8.0 0.00 0.41 0.36 29 1008.1
20260507203037 64 314 4.0 16.0 0.00 0.41 0.36 30 1008.3
20260507201542 64 0 0.0 9.0 0.00 0.41 0.36 36 1008.3
20260507200038 64 0 0.0 7.0 0.00 0.41 0.36 33 1008.5
20260507194603 64 320 1.0 9.0 0.00 0.41 0.36 30 1008.7
20260507193035 64 306 1.0 6.0 0.00 0.41 0.36 29 1008.8
20260507191541 64 312 1.0 6.0 0.00 0.41 0.36 38 1009.2
20260507190034 63 319 3.0 13.0 0.00 0.41 0.36 28 1009.4
20260507184539 64 323 3.0 10.0 0.00 0.41 0.36 31 1009.4
20260507183037 63 0 1.0 11.0 0.00 0.41 0.36 36 1009.5
20260507181535 64 321 2.0 8.0 0.00 0.41 0.36 32 1009.5
20260507180038 62 327 1.0 14.0 0.00 0.41 0.36 38 1009.7
20260507174544 62 304 3.0 9.0 0.00 0.41 0.36 33 1009.9
20260507173039 63 304 2.0 8.0 0.00 0.41 0.36 35 1010.0
20260507171540 62 292 1.0 12.0 0.00 0.41 0.36 36 1010.3
20260507170039 62 0 1.0 10.0 0.00 0.41 0.36 40 1010.6
20260507164533 62 327 1.0 9.0 0.00 0.42 0.36 46 1010.8
20260507163035 61 0 0.0 6.0 0.00 0.42 0.36 44 1010.9
20260507161539 61 32 1.0 8.0 0.00 0.42 0.36 48 1011.2
20260507160037 60 0 1.0 5.0 0.00 0.42 0.36 56 1011.3
20260507154537 59 314 1.0 8.0 0.00 0.42 0.36 58 1011.5
20260507153040 58 329 0.0 8.0 0.00 0.42 0.36 52 1011.8
20260507151536 58 307 2.0 9.0 0.00 0.42 0.36 53 1011.9
20260507150038 56 319 3.0 8.0 0.00 0.42 0.36 58 1012.1
20260507144535 56 313 3.0 8.0 0.00 0.42 0.36 58 1012.1
20260507143037 56 279 3.0 9.0 0.00 0.42 0.36 63 1012.3
20260507141542 54 275 3.0 8.0 0.00 0.42 0.36 75 1012.3
20260507140039 53 309 1.0 4.0 0.00 0.42 0.36 71 1012.5
20260507134537 53 0 0.0 6.0 0.00 0.42 0.36 73 1012.5
20260507133036 53 0 1.0 8.0 0.00 0.42 0.36 77 1012.4
20260507131544 53 0 0.0 4.0 0.00 0.42 0.36 88 1012.5
20260507130039 52 311 1.0 5.0 0.00 0.42 0.36 83 1012.3
20260507124535 52 0 0.0 4.0 0.00 0.42 0.36 92 1012.4
20260507123037 52 0 1.0 5.0 0.00 0.42 0.36 91 1012.4
20260507121533 52 0 0.0 1.0 0.00 0.42 0.36 95 1012.3
20260507120035 51 0 0.0 0.0 0.00 0.42 0.36 96 1012.3